Location: Sabalos
(43.2860°N, 0.1414°E)
Time: 04:10:34
(UTC+00:00)

Atlas Centaur 2 - Pass Details

Date: 05 July 2020
Orbit: 459 x 1310 km, 30.4° (Epoch: 06 August)

Event Time Altitude Azimuth Distance (km) Brightness Sun altitude
Rises 22:13:49 0° 252° (WSW) 3,451 5.5 -19.3°
Reaches altitude 10° 22:16:39 10° 239° (WSW) 2,657 4.7 -19.6°
Enters shadow 22:21:22 25° 193° (SSW) 2,006 3.7 -19.9°
